Location: Kearney
(40.6990°N, 99.0810°W)
Time: 01:51:59
(UTC-06:00)

Cosmos 1745 Rocket - Pass Details

Date: 18 December 2017
Orbit: 953 x 997 km, 83.0° (Epoch: 21 January)

Event Time Altitude Azimuth Distance (km) Brightness Sun altitude
Rises 19:45:28 0° 350° (N) 3,661 7.0 -28.3°
Reaches altitude 10° 19:47:58 10° 349° (N) 2,716 6.4 -28.8°
Maximum altitude 19:54:10 74° 266° (W) 1,015 4.1 -30.0°
Drops below altitude 10° 20:00:24 10° 182° (S) 2,730 6.4 -31.1°
Sets 20:02:55 0° 181° (S) 3,680 7.1 -31.6°
